Сым

Россия / Красноярский край     60°20′47″N   88°21′41″E
темп.,
°C
ветер,
м/с
пор.,
м/с
влажн.,
%
обл.,
%
осадки,
мм/ч
давл.,
гПа
погр.,
м
8 мая, сб
сб801:00+5з399290 0.6 1007388
04:00+5зсз258695 0.2 1008503
07:00+4з3584100 0.5 1009572
10:00+3з2597100 0.7 1009463
13:00+6зсз2369100 1.0 10091046
16:00+6сз3370100 1.0 1010902
19:00+6сз3462100 1.3 10121046
22:00+3сз278671 0.1 1013174
9 мая, вс
вс901:00+1сз27945 0.1 1014176
04:000ссз399725 0.0 1016251
07:00+2ссз488633 0.0 1018378
10:00+7с456562 0.0 10191072
13:00+7ссз456493 0.1 10201164
16:00+7ссз4666100 0.0 10211002
19:00+7ссз4767100 0.0 1023751
22:00+5ссз3879100 0.0 1024482
10 мая, пн
пн1001:00+4ссз3887100 0.0 1025338
04:00+3ссз3689100 0.0 1025272
07:00+3с3789100 0.0 1026253
10:00+5с3579100 0.0 1027324
13:00+7с346898 0.0 1027518
16:00+9с345788 0.0 1026916
19:00+9с3460100 0.0 1026878
22:00+6с3673100 0.0 1026416
11 мая, вт
вт1101:00+5с3680100 0.0 1025407
04:00+4с3686100 0.0 1024353
07:00+4с3587100 0.0 1024376
10:00+6ссв347175 0.1 1024901
13:00+9ссв3355100 0.2 10231297
16:00+10св2451100 0.0 10221336
19:00+10ссв3556100 0.1 10221197
22:00+7св397150 0.1 1022408
12 мая, ср
ср1201:00+3св26905 0.1 1023166
04:00+2всв24955 0.0 102282
07:00+4всв24815 0.0 1023197
10:00+9всв235336 0.0 10221123
13:00+13св223845 0.0 10211854
16:00+14св223166 0.0 10202102
19:00+13св223254 0.0 10211976
22:00+9св1146100 0.0 102211